www.pogodaiklimat.ru

Архив погоды в Койгородке (Коми, Россия)

Время
(UTC), дата
03 21.05
06 21.05
09 21.05
12 21.05
15 21.05
18 21.05
21 21.05
00 22.05
03 22.05
06 22.05
09 22.05
12 22.05
15 22.05
18 22.05
21 22.05
00 23.05
03 23.05
06 23.05
09 23.05
12 23.05
15 23.05
18 23.05
21 23.05
00 24.05
03 24.05
06 24.05
09 24.05
12 24.05
15 24.05
18 24.05
21 24.05
00 25.05
03 25.05
06 25.05
09 25.05
12 25.05
15 25.05
18 25.05
21 25.05
00 26.05
03 26.05
06 26.05
09 26.05
12 26.05
15 26.05
18 26.05
21 26.05
00 27.05
03 27.05
06 27.05
09 27.05
12 27.05
15 27.05
Ветер
(напр.,м/с)
Видим. Явления Облачность Т
(С)
Тd
(С)
f
(%)
Тe
(С)
Тes
(С)
Комфортность P
(гПа)
Po
(гПа)
Тmin
(С)
Tmax
(С)
R
(мм)
R24
(мм)
S
(см)
С 3 20 км 10/10 420 м
[Sc]
+7.2 +4.3 82 +4 +4 1014.5 999.1 +7.2
СЗ 3 20 км 3/3 600 м
[Sc]
+8.8 +0.5 56 +7 +13 1016.4 1001.1 +6.4
С 3 {10} 20 км 3/0
[Ci fib]
+11.2 -7.2 27 +10 +20 опасность простуды 1017.2 1002.0
СЗ 4 {11} 20 км 9/3 600 м
[Sc Ac lent Cs]
+11.7 -6.7 27 +10 +12 1017.6 1002.4
СЗ 4 20 км 8/3 600 м
[Cb calv Ac lent Cs]
+11.0 -4.7 33 +9 +10 1017.9 1002.7 +12.4
СЗ 1 {10} 8000 м слаб. ливневой дождь 10/10 360 м
[Cb calv]
+3.0 +1.4 89 +1 +1 1020.4 1004.7
штиль 0 35 км {ливн. снег} 3/0
[Ac trans]
-0.9 -0.9 100 -2 -2 1021.4 1005.5
штиль 0 400 м туман, небо видно ясно -2.7 -2.7 100 -4 -4 1022.4 1006.4
З 1 20 км дымка {туман} 1/0
[Ac trans]
+3.1 +0.3 82 +2 +5 1022.5 1006.7 -3.0 0.8
С 4 20 км {туман} 9/9 960 м
[Cb calv]
+6.5 -8.3 34 +4 +4 1022.4 1006.8
СЗ 4 {11} 20 км 9/5 600 м
[Cb calv Ac trans]
+7.1 -8.5 32 +4 +7 1023.3 1007.8
СЗ 4-10 {10} 20 км 8/3 1000 м
[Cb calv Ac As]
+6.6 -10.6 28 +4 +6 1024.3 1008.7
С 4 {10} 20 км 10/0
[Ac und]
+5.0 -10.4 32 +2 +2 1025.4 1009.8 +8.0
СЗ 1 20 км 10/0
[Ac und]
+2.7 -9.2 41 +2 +2 1026.4 1010.6
СЗ 1 30 км 10/0
[Ac und]
+0.8 -7.9 52 -0 -0 1027.4 1011.5
СЗ 1 20 км 10/0
[Ac und]
+0.3 -7.5 56 -1 -1 1028.4 1012.4
С 2 20 км 1/0
[Ci fib]
+3.4 -7.4 45 +1 +4 1029.5 1013.7 -0.1
С 4 {10} 20 км 8/0
[Ac As]
+5.7 -10.6 30 +3 +6 1029.5 1013.8
СЗ 4 {11} 20 км 3/0
[Ac trans]
+9.6 -9.0 26 +8 +15 1028.0 1012.5
С 3 {11} 20 км 3/0
[Ac trans]
+10.8 -8.5 25 +10 +15 1027.0 1011.7
С 2 {11} 20 км 6/0
[Ac lent Ci fib]
+9.9 -8.3 27 +9 +10 1026.8 1011.4 +11.2
штиль 0 20 км 3/0
[Ac trans Ci sp]
+2.1 -3.2 68 +1 +1 1027.7 1011.8
штиль 0 40 км 5/0
[Ac lent Ci fib]
-1.6 -3.3 88 -3 -3 1027.6 1011.6
штиль 0 20 км 10/0
[Ac lent Cs]
-1.2 -2.6 90 -2 -2 1027.7 1011.6
З 1 20 км 10/0
[Ac As]
+7.5 -4.0 44 +7 +8 1027.1 1011.5 -2.5
ЮЗ 3 20 км 10/0
[Ac As]
+12.1 -4.1 32 +11 +14 1025.9 1010.6
ЮЗ 4 {10} 20 км 10/0
[Ac As Cs]
+15.9 -3.6 26 +15 +19 1023.2 1008.2
ЮЗ 5 {11} 20 км 10/0
[Ac As Cs]
+19.6 +0.1 27 +20 +22 1019.5 1004.7
ЮЗ 2 {11} 20 км 8/0
[Ac lent Ci fib]
+21.1 +3.4 31 +21 +22 комфорт 1016.9 1002.3 +21.9
ЮЗ 1 20 км 9/1 1000 м
[Cb calv Ac lent Ci sp]
+17.5 +6.0 47 +19 +19 1016.5 1001.6
З 1 35 км 3/0
[Ac trans Ci fib]
+16.3 +6.7 53 +17 +17 1015.9 1001.0
ЮЗ 1 20 км 4/0
[Ac trans Ci sp]
+7.8 +5.9 88 +7 +7 1016.3 1000.9
З 3 20 км 10/0
[Cs]
+20.0 +6.7 42 +21 +23 комфорт 1014.4 999.7 +7.8
З 6-12 {12} 20 км 10/0
[Ci sp]
+23.2 +6.0 33 +24 +27 комфорт 1011.9 997.4
З 6-14 {14} 20 км 10/8 660 м
[Cb calv Ci sp]
+24.7 +5.5 29 +24 +25 комфорт 1009.3 994.9
С 2 {16} 6000 м слаб. ливневой дождь {гроза} 10/10 420 м
[Cb calv]
+11.7 +11.2 97 +10 +10 1014.8 999.7
З 2 20 км {ливн. дождь} 10/3 300 м
[Cb calv As op]
+11.3 +10.7 96 +10 +10 1014.3 999.2 +25.7 4
СЗ 2 20 км {ливн. дождь} 9/5 600 м
[Cb calv Ac lent Ci sp]
+6.6 +5.8 95 +4 +4 1017.8 1002.3
СЗ 2 30 км {ливн. дождь} 9/0
[Ac lent]
+4.8 +3.9 94 +2 +2 1019.4 1003.8
СЗ 3 20 км {ливн. дождь} 10/0
[Ac lent]
+3.1 -0.6 77 -1 -1 1021.1 1005.4
СЗ 2 20 км 10/0
[Ac As]
+3.4 -1.2 72 +1 +2 1022.2 1006.5 +2.5 0.8
С 4 20 км 10/10 960 м
[Cb calv]
+3.8 -3.2 60 -0 -0 1024.1 1008.4
СЗ 4 {11} 20 км 10/10 1230 м
[Sc]
+5.7 -4.8 47 +2 +2 1025.5 1009.9
С 3 {10} 20 км 10/10 1260 м
[Sc]
+6.5 -4.3 46 +4 +4 1026.2 1010.6
СЗ 3 20 км 9/8 1350 м
[Sc Ac trans]
+6.3 -4.8 45 +4 +4 1026.9 1011.3 +7.2
З 1 20 км 10/3 1000 м
[Sc Ac As]
+4.3 -3.0 59 +3 +3 1027.9 1012.2
З 1 30 км 5/0
[Ac As]
+3.6 -2.8 63 +3 +3 1027.9 1012.1
ЮЗ 1 20 км 10/0
[Ac As]
+2.0 -2.7 71 +1 +1 1028.2 1012.3
З 2 20 км 10/0
[Ac und]
+5.2 -2.4 58 +3 +4 1027.4 1011.7 +1.6
З 3 20 км 10/0
[Ac As]
+9.1 -1.1 49 +7 +10 1026.2 1010.8
З 4 {11} 20 км 9/3 1000 м
[Cb calv Ac lent Ci fib]
+13.4 +0.4 41 +12 +16 1024.0 1008.8
З 4-10 {14} 20 км 6/1 1000 м
[Cb calv Ac trans Ci fib]
+20.2 +2.5 31 +21 +24 комфорт 1020.4 1005.6
З 4-10 {14} 20 км 3/0
[Ac trans Ci fib]
+19.5 +2.4 32 +20 +21 1018.4 1003.6 +20.3
Местоположение метеостанции Койгородок (Коми, Россия): широта 60.45 долгота 50.97 высота над уровнем моря 125 м.
В архиве по умолчанию представлена погода в Койгородке за последнюю неделю. Архивные данные за месяц целиком и за предыдущие месяцы, начиная с января 2011 года, Вы можете получить, выбрав интересующий диапазон дат из раскрывающегося списка и нажав кнопку "Найти!".
*Определитесь, кто Вы:
Внимание! Время в таблицах - всемирное. Для получения местного времени необходимо прибавить поправку, которая равна 3 ч.
Некоторые строки с данными для отдельных станций могут быть выделены курсивом. Это означает, что фактические данные отсутствуют по различным причинам, а приведенные значения являются расчетными модельными данными для данного пункта наблюдений.
Смотрите также архив погоды в соседних городах и на ближайших метеорологических станциях:
Партнеры нашего сайта:
Alloc
Галерея работ. Интернет-магазин отделочных материалов.
ave-parket.ru

Недорогой памятник на могилу с установкой
памятников на заказ. Гравировка. Доставка. Установка
msk.danila-master.ru

ПК Бествей приморский суд
ПК Бествей приморский суд
pravda.ru

     
Пояснения к столбцам:
  • Ветер - указаны скорость ветра в м/с - средняя за 10 мин, порывы в срок и между сроками (в фигурных скобках) и направление, откуда дует ветер: С - северный,
  • СВ - северо-восточный, В - восточный, ЮВ - юго-восточный, Ю - южный, ЮЗ - юго-западный, З - западный, СЗ - северо-западный.
  • Видимость - горизонтальная дальность видимости в метрах или километрах. При видимости от 1 до 10 км при отсутствии осадков обычно наблюдается дымка, при ухудшении видимости до 1 км и менее - туман. В сухую погоду видимость может ухудшаться дымом, пылью или мглою.
  • Явления - указаны атмосферные явления, наблюдавшиеся в срок или в последний час перед сроком; фигурными скобками обозначены явления, наблюдавшиеся между сроками (за 1-3 часа до срока); квадратными скобками обозначены град или гололедные отложения с указанием их диаметра в мм.
  • Облачность - указаны через наклонную черту общая и нижняя облачность в баллах и высота нижней границы облаков в метрах; квадратными скобками обозначены формы облаков: Ci - перистые, Cs - перисто-слоистые, Cc - перисто-кучевые, Ac - высококучевые, As - высокослоистые, Sc - слоисто-кучевые, Ns - слоисто-дождевые, Cu - кучевые, Cb - кучево-дождевые. Подробнее классификацию облаков см. в Атласе облаков (PDF).
  • T - Температура воздуха - температура, измеренная на высоте 2 м над землей.
  • Td - Температура точки росы - температура, при понижении до которой содержащийся в воздухе водяной пар достигнет насыщения.
  • f - Относительная влажность воздуха - влажноcть воздуха, измеренная на высоте 2 м над землей.
  • Te - Эффективная температура - температура, которую ощущает одетый по сезону человек в тени. Характеристика душности погоды. При расчете учитывается влияние влажности воздуха и скорости ветра на теплоощущения человека.
  • Tes - Эффективная температура на солнце - температура, которую ощущает человек, с поправкой на солнечный нагрев. Характеристика знойности погоды. Зависит от высоты солнца над горизонтом, облачности и скорости ветра. Ночью, в пасмурную погоду, а также при ветре 12 м/с и более поправка равна нулю.
  • P - Атмосферное давление - приведенное к уровню моря атмосферное давление.
  • Po - Атмосферное давление - измеренное на уровне метеостанции атмосферное давление.
  • Tmin - Минимальная температура - минимум температуры воздуха на высоте 2 м над землей.
  • Tmax - Максимальная температура - максимум температуры воздуха на высоте 2 м над землей.
  • R - Количество осадков - Количество выпавших осадков за период времени, мм. При наведении курсора мыши на число - период времени, за который выпало указанное количество осадков.
  • R24 - Количество осадков - Количество выпавших осадков за 24 часа, мм.
  • S - Снежный покров - Высота снежного покрова, см. При наведении курсора мыши на число - состояние снежного покрова и степень покрытия местности в баллах.